Wetterdaten: Freitag, 19.04.2013
Datum Zeit Temp. Auen Feucht Auen Luftdruck Regen Richtung Richtung Windben
19.04.2013 00:00 15,7 C 78 % 1017,1 hPa 0,0 mm W 267 11,3 km/h (2 Bft)
19.04.2013 00:05 15,8 C 77 % 1017,3 hPa 0,0 mm W 267 11,3 km/h (2 Bft)
19.04.2013 00:10 15,8 C 77 % 1017,3 hPa 0,0 mm W 265 12,9 km/h (3 Bft)
19.04.2013 00:15 16,0 C 75 % 1017,4 hPa 0,0 mm W-SW 256 12,9 km/h (3 Bft)
19.04.2013 00:20 16,2 C 74 % 1017,5 hPa 0,0 mm W 270 12,9 km/h (3 Bft)
19.04.2013 00:25 16,3 C 74 % 1017,5 hPa 0,0 mm W 270 8,0 km/h (2 Bft)
19.04.2013 00:30 16,3 C 73 % 1017,5 hPa 0,0 mm W-NW 284 14,5 km/h (3 Bft)
19.04.2013 00:35 16,4 C 72 % 1017,6 hPa 0,0 mm W 281 9,7 km/h (2 Bft)
19.04.2013 00:40 16,4 C 72 % 1017,7 hPa 0,0 mm W 270 8,0 km/h (2 Bft)
19.04.2013 00:45 16,3 C 72 % 1017,8 hPa 0,0 mm W 277 6,4 km/h (2 Bft)
19.04.2013 00:50 16,3 C 72 % 1017,9 hPa 0,0 mm W 269 4,8 km/h (1 Bft)
19.04.2013 00:55 16,2 C 73 % 1018,0 hPa 0,0 mm W-NW 292 4,8 km/h (1 Bft)
19.04.2013 01:00 16,3 C 73 % 1018,0 hPa 0,0 mm W 277 6,4 km/h (2 Bft)
19.04.2013 01:05 16,3 C 75 % 1018,0 hPa 0,0 mm W-SW 256 12,9 km/h (3 Bft)
19.04.2013 01:10 16,3 C 79 % 1018,0 hPa 0,4 mm W-NW 288 11,3 km/h (2 Bft)
19.04.2013 01:15 15,8 C 82 % 1017,9 hPa 0,4 mm W-SW 252 4,8 km/h (1 Bft)
19.04.2013 01:20 15,3 C 83 % 1017,9 hPa 0,0 mm W-SW 252 3,2 km/h (1 Bft)
19.04.2013 01:25 15,1 C 86 % 1017,8 hPa 0,0 mm W-SW 258 6,4 km/h (2 Bft)
19.04.2013 01:30 14,8 C 87 % 1018,0 hPa 0,0 mm W-SW 252 4,8 km/h (1 Bft)
19.04.2013 01:35 14,6 C 89 % 1018,0 hPa 0,0 mm W-SW 252 3,2 km/h (1 Bft)
19.04.2013 01:40 14,4 C 89 % 1018,2 hPa 0,0 mm W-SW 252 1,6 km/h (1 Bft)
19.04.2013 01:45 14,3 C 90 % 1018,3 hPa 0,0 mm W 261 6,4 km/h (2 Bft)
19.04.2013 01:50 14,3 C 90 % 1018,4 hPa 0,2 mm W-NW 285 6,4 km/h (2 Bft)
19.04.2013 01:55 14,2 C 90 % 1018,4 hPa 0,2 mm W 273 8,0 km/h (2 Bft)
19.04.2013 02:00 14,1 C 90 % 1018,4 hPa 0,2 mm W 266 4,8 km/h (1 Bft)
19.04.2013 02:05 14,1 C 91 % 1018,4 hPa 0,0 mm W 266 3,2 km/h (1 Bft)
19.04.2013 02:10 14,1 C 91 % 1018,3 hPa 0,2 mm W 266 1,6 km/h (1 Bft)
19.04.2013 02:15 14,0 C 91 % 1018,3 hPa 0,0 mm W 266 1,6 km/h (1 Bft)
19.04.2013 02:20 13,9 C 91 % 1018,3 hPa 0,0 mm W 266 1,6 km/h (1 Bft)
19.04.2013 02:25 13,8 C 92 % 1018,2 hPa 0,0 mm W 266 3,2 km/h (1 Bft)
19.04.2013 02:30 13,9 C 92 % 1018,2 hPa 0,0 mm W 266 4,8 km/h (1 Bft)
19.04.2013 02:35 13,9 C 92 % 1018,2 hPa 0,2 mm W 276 4,8 km/h (1 Bft)
19.04.2013 02:40 13,8 C 92 % 1018,3 hPa 0,0 mm W 263 6,4 km/h (2 Bft)
19.04.2013 02:45 13,8 C 92 % 1018,3 hPa 0,0 mm W 265 8,0 km/h (2 Bft)
19.04.2013 02:50 13,8 C 92 % 1018,3 hPa 0,2 mm W 265 8,0 km/h (2 Bft)
19.04.2013 02:55 13,8 C 92 % 1018,3 hPa 0,2 mm W 263 6,4 km/h (2 Bft)
19.04.2013 03:00 13,8 C 92 % 1018,3 hPa 0,0 mm W 263 3,2 km/h (1 Bft)
19.04.2013 03:05 13,8 C 92 % 1018,4 hPa 0,0 mm W 271 6,4 km/h (2 Bft)
19.04.2013 03:10 13,8 C 92 % 1018,4 hPa 0,0 mm W-NW 282 11,3 km/h (2 Bft)
19.04.2013 03:15 13,8 C 92 % 1018,5 hPa 0,0 mm W 267 9,7 km/h (2 Bft)
19.04.2013 03:20 13,8 C 92 % 1018,5 hPa 0,0 mm W 268 11,3 km/h (2 Bft)
19.04.2013 03:25 13,8 C 92 % 1018,5 hPa 0,2 mm W 262 12,9 km/h (3 Bft)
19.04.2013 03:30 13,9 C 92 % 1018,6 hPa 0,0 mm W 280 8,0 km/h (2 Bft)
19.04.2013 03:35 13,8 C 92 % 1018,5 hPa 0,0 mm W 271 6,4 km/h (2 Bft)
19.04.2013 03:40 13,8 C 92 % 1018,6 hPa 0,0 mm W-NW 286 6,4 km/h (2 Bft)
19.04.2013 03:45 13,8 C 92 % 1018,6 hPa 0,0 mm W-NW 294 9,7 km/h (2 Bft)
19.04.2013 03:50 13,8 C 92 % 1018,7 hPa 0,0 mm W 259 8,0 km/h (2 Bft)
19.04.2013 03:55 13,7 C 92 % 1018,7 hPa 0,0 mm W-SW 244 11,3 km/h (2 Bft)
19.04.2013 04:00 13,7 C 92 % 1018,7 hPa 0,0 mm W 275 14,5 km/h (3 Bft)
19.04.2013 04:05 13,7 C 92 % 1018,7 hPa 0,0 mm W-NW 284 14,5 km/h (3 Bft)
19.04.2013 04:10 13,6 C 92 % 1018,8 hPa 0,0 mm W 267 12,9 km/h (3 Bft)
19.04.2013 04:15 13,5 C 91 % 1018,8 hPa 0,0 mm W-SW 257 11,3 km/h (2 Bft)
19.04.2013 04:20 13,4 C 91 % 1018,8 hPa 0,0 mm W 261 9,7 km/h (2 Bft)
19.04.2013 04:25 13,3 C 91 % 1018,9 hPa 0,0 mm W 269 12,9 km/h (3 Bft)
19.04.2013 04:30 13,1 C 89 % 1018,9 hPa 0,0 mm W 270 14,5 km/h (3 Bft)
19.04.2013 04:35 13,1 C 89 % 1019,0 hPa 0,0 mm W 267 12,9 km/h (3 Bft)
19.04.2013 04:40 12,9 C 89 % 1019,0 hPa 0,0 mm W 264 16,1 km/h (3 Bft)
19.04.2013 04:45 12,8 C 88 % 1019,0 hPa 0,0 mm W 268 11,3 km/h (2 Bft)
19.04.2013 04:50 12,7 C 87 % 1019,1 hPa 0,0 mm W 270 12,9 km/h (3 Bft)
19.04.2013 04:55 12,6 C 87 % 1019,1 hPa 0,0 mm W 259 8,0 km/h (2 Bft)
19.04.2013 05:00 12,5 C 86 % 1019,1 hPa 0,0 mm SW 236 16,1 km/h (3 Bft)
19.04.2013 05:05 12,3 C 84 % 1019,2 hPa 0,0 mm W 270 20,9 km/h (4 Bft)
19.04.2013 05:10 12,1 C 84 % 1019,3 hPa 0,0 mm W-NW 284 17,7 km/h (3 Bft)
19.04.2013 05:15 11,9 C 85 % 1019,3 hPa 0,0 mm W 267 14,5 km/h (3 Bft)
19.04.2013 05:20 11,7 C 85 % 1019,3 hPa 0,0 mm W-NW 284 17,7 km/h (3 Bft)
19.04.2013 05:25 11,6 C 86 % 1019,4 hPa 0,0 mm W 273 11,3 km/h (2 Bft)
19.04.2013 05:30 11,4 C 87 % 1019,5 hPa 0,0 mm W-SW 252 8,0 km/h (2 Bft)
19.04.2013 05:35 11,3 C 88 % 1019,5 hPa 0,0 mm W 281 6,4 km/h (2 Bft)
19.04.2013 05:40 11,2 C 88 % 1019,5 hPa 0,0 mm W-NW 302 8,0 km/h (2 Bft)
19.04.2013 05:45 11,1 C 89 % 1019,6 hPa 0,0 mm W-NW 290 8,0 km/h (2 Bft)
19.04.2013 05:50 11,0 C 89 % 1019,6 hPa 0,0 mm W-NW 291 3,2 km/h (1 Bft)
19.04.2013 05:55 10,9 C 90 % 1019,6 hPa 0,0 mm W-NW 290 3,2 km/h (1 Bft)
19.04.2013 06:00 10,9 C 90 % 1019,6 hPa 0,0 mm W-NW 290 3,2 km/h (1 Bft)
19.04.2013 06:05 10,9 C 90 % 1019,6 hPa 0,0 mm W-NW 286 3,2 km/h (1 Bft)
19.04.2013 06:10 10,9 C 90 % 1019,5 hPa 0,0 mm W 262 6,4 km/h (2 Bft)
19.04.2013 06:15 10,8 C 91 % 1019,6 hPa 0,0 mm W 263 3,2 km/h (1 Bft)
19.04.2013 06:20 10,7 C 91 % 1019,7 hPa 0,0 mm W 262 4,8 km/h (1 Bft)
19.04.2013 06:25 10,7 C 91 % 1019,7 hPa 0,0 mm W 263 3,2 km/h (1 Bft)
19.04.2013 06:30 10,7 C 92 % 1019,7 hPa 0,2 mm W 267 4,8 km/h (1 Bft)
19.04.2013 06:35 10,7 C 92 % 1019,7 hPa 0,0 mm W 267 4,8 km/h (1 Bft)
19.04.2013 06:40 10,6 C 92 % 1019,7 hPa 0,0 mm W 273 4,8 km/h (1 Bft)
19.04.2013 06:45 10,6 C 92 % 1019,7 hPa 0,0 mm W 273 3,2 km/h (1 Bft)
19.04.2013 06:50 10,6 C 92 % 1019,8 hPa 0,0 mm W-SW 253 4,8 km/h (1 Bft)
19.04.2013 06:55 10,6 C 93 % 1019,8 hPa 0,0 mm W-SW 254 3,2 km/h (1 Bft)
19.04.2013 07:00 10,5 C 93 % 1019,8 hPa 0,0 mm W-SW 254 3,2 km/h (1 Bft)
19.04.2013 07:05 10,5 C 93 % 1019,8 hPa 0,0 mm W-SW 255 4,8 km/h (1 Bft)
19.04.2013 07:10 10,5 C 93 % 1019,8 hPa 0,0 mm W-SW 255 4,8 km/h (1 Bft)
19.04.2013 07:15 10,5 C 93 % 1019,8 hPa 0,0 mm W-SW 255 3,2 km/h (1 Bft)
19.04.2013 07:20 10,5 C 93 % 1019,8 hPa 0,0 mm W-SW 255 1,6 km/h (1 Bft)
19.04.2013 07:25 10,4 C 93 % 1019,8 hPa 0,0 mm W 259 3,2 km/h (1 Bft)
19.04.2013 07:30 10,3 C 93 % 1019,8 hPa 0,0 mm W 259 3,2 km/h (1 Bft)
19.04.2013 07:35 10,4 C 93 % 1019,8 hPa 0,0 mm W 259 1,6 km/h (1 Bft)
19.04.2013 07:40 10,4 C 93 % 1019,9 hPa 0,0 mm W 259 1,6 km/h (1 Bft)
19.04.2013 07:45 10,5 C 93 % 1019,9 hPa 0,0 mm W 263 3,2 km/h (1 Bft)
19.04.2013 07:50 10,5 C 93 % 1019,9 hPa 0,0 mm W 263 0,0 km/h (0 Bft)
19.04.2013 07:55 10,5 C 92 % 1020,0 hPa 0,0 mm W 263 1,6 km/h (1 Bft)
19.04.2013 08:00 10,4 C 93 % 1020,0 hPa 0,0 mm W 263 1,6 km/h (1 Bft)
19.04.2013 08:05 10,4 C 93 % 1020,0 hPa 0,0 mm W 263 1,6 km/h (1 Bft)
19.04.2013 08:10 10,5 C 93 % 1019,9 hPa 0,0 mm W 263 1,6 km/h (1 Bft)
19.04.2013 08:15 10,6 C 93 % 1020,0 hPa 0,0 mm W 263 3,2 km/h (1 Bft)
19.04.2013 08:20 10,7 C 93 % 1020,0 hPa 0,0 mm W 265 4,8 km/h (1 Bft)
19.04.2013 08:25 10,7 C 93 % 1020,0 hPa 0,0 mm W 265 3,2 km/h (1 Bft)
19.04.2013 08:30 10,8 C 93 % 1020,0 hPa 0,0 mm W 265 3,2 km/h (1 Bft)
19.04.2013 08:35 10,8 C 92 % 1020,0 hPa 0,0 mm W 265 3,2 km/h (1 Bft)
19.04.2013 08:40 10,9 C 92 % 1020,0 hPa 0,0 mm W 265 3,2 km/h (1 Bft)
19.04.2013 08:45 10,9 C 92 % 1020,1 hPa 0,0 mm W 265 3,2 km/h (1 Bft)
19.04.2013 08:50 11,0 C 92 % 1020,1 hPa 0,0 mm W 265 3,2 km/h (1 Bft)
19.04.2013 08:55 11,1 C 91 % 1020,1 hPa 0,0 mm W 261 3,2 km/h (1 Bft)
19.04.2013 09:00 11,1 C 91 % 1020,1 hPa 0,0 mm W 269 4,8 km/h (1 Bft)
19.04.2013 09:05 11,1 C 91 % 1020,1 hPa 0,0 mm W 263 4,8 km/h (1 Bft)
19.04.2013 09:10 11,1 C 91 % 1020,2 hPa 0,0 mm W 265 4,8 km/h (1 Bft)
19.04.2013 09:15 11,2 C 90 % 1020,3 hPa 0,0 mm W 273 4,8 km/h (1 Bft)
19.04.2013 09:20 11,2 C 90 % 1020,3 hPa 0,2 mm W-NW 282 3,2 km/h (1 Bft)
19.04.2013 09:25 11,2 C 90 % 1020,3 hPa 0,0 mm W 281 3,2 km/h (1 Bft)
19.04.2013 09:30 11,2 C 89 % 1020,3 hPa 0,0 mm W 281 3,2 km/h (1 Bft)
19.04.2013 09:35 11,1 C 89 % 1020,4 hPa 0,0 mm W 281 4,8 km/h (1 Bft)
19.04.2013 09:40 11,1 C 89 % 1020,3 hPa 0,0 mm W-NW 284 4,8 km/h (1 Bft)
19.04.2013 09:45 11,2 C 89 % 1020,5 hPa 0,0 mm W 271 8,0 km/h (2 Bft)
19.04.2013 09:50 11,2 C 89 % 1020,5 hPa 0,0 mm W 279 6,4 km/h (2 Bft)
19.04.2013 09:55 11,2 C 88 % 1020,5 hPa 0,0 mm W-SW 255 6,4 km/h (2 Bft)
19.04.2013 10:00 11,3 C 89 % 1020,5 hPa 0,0 mm W-SW 253 6,4 km/h (2 Bft)
19.04.2013 10:05 11,3 C 88 % 1020,5 hPa 0,0 mm W 275 4,8 km/h (1 Bft)
19.04.2013 10:10 11,4 C 88 % 1020,5 hPa 0,0 mm W-NW 302 4,8 km/h (1 Bft)
19.04.2013 10:15 11,4 C 87 % 1020,5 hPa 0,0 mm W 276 4,8 km/h (1 Bft)
19.04.2013 10:20 11,4 C 87 % 1020,6 hPa 0,0 mm W 277 6,4 km/h (2 Bft)
19.04.2013 10:25 11,3 C 84 % 1020,5 hPa 0,0 mm N-NO 28 14,5 km/h (3 Bft)
19.04.2013 10:30 11,2 C 84 % 1020,6 hPa 0,0 mm W-NW 284 14,5 km/h (3 Bft)
19.04.2013 10:35 11,1 C 85 % 1020,6 hPa 0,0 mm W-SW 247 9,7 km/h (2 Bft)
19.04.2013 10:40 11,2 C 85 % 1020,6 hPa 0,0 mm W-SW 257 6,4 km/h (2 Bft)
19.04.2013 10:45 11,2 C 84 % 1020,5 hPa 0,0 mm W 260 4,8 km/h (1 Bft)
19.04.2013 10:50 11,3 C 84 % 1020,5 hPa 0,0 mm W 260 3,2 km/h (1 Bft)
19.04.2013 10:55 11,4 C 83 % 1020,6 hPa 0,0 mm W 259 4,8 km/h (1 Bft)
19.04.2013 11:00 11,4 C 83 % 1020,6 hPa 0,0 mm W-NW 296 8,0 km/h (2 Bft)
19.04.2013 11:05 11,4 C 84 % 1020,6 hPa 0,0 mm W-NW 285 8,0 km/h (2 Bft)
19.04.2013 11:10 11,4 C 84 % 1020,7 hPa 0,0 mm W-NW 282 8,0 km/h (2 Bft)
19.04.2013 11:15 11,2 C 84 % 1020,7 hPa 0,0 mm W-NW 284 16,1 km/h (3 Bft)
19.04.2013 11:20 11,0 C 86 % 1020,8 hPa 0,0 mm W 280 9,7 km/h (2 Bft)
19.04.2013 11:25 10,8 C 87 % 1020,8 hPa 0,0 mm W 279 11,3 km/h (2 Bft)
19.04.2013 11:30 10,6 C 88 % 1020,8 hPa 0,0 mm W-SW 248 12,9 km/h (3 Bft)
19.04.2013 11:35 10,6 C 88 % 1020,8 hPa 0,0 mm W 275 11,3 km/h (2 Bft)
19.04.2013 11:40 10,5 C 88 % 1020,8 hPa 0,0 mm W-NW 298 16,1 km/h (3 Bft)
19.04.2013 11:45 10,6 C 89 % 1020,8 hPa 0,0 mm W-SW 255 6,4 km/h (2 Bft)
19.04.2013 11:50 10,8 C 89 % 1020,6 hPa 0,0 mm W 267 8,0 km/h (2 Bft)
19.04.2013 11:55 10,8 C 89 % 1020,7 hPa 0,0 mm W-SW 246 9,7 km/h (2 Bft)
19.04.2013 12:00 10,7 C 88 % 1020,7 hPa 0,0 mm W 259 12,9 km/h (3 Bft)
19.04.2013 12:05 10,7 C 88 % 1020,7 hPa 0,0 mm W-SW 257 16,1 km/h (3 Bft)
19.04.2013 12:10 10,6 C 88 % 1020,7 hPa 0,0 mm W 269 12,9 km/h (3 Bft)
19.04.2013 12:15 10,6 C 88 % 1020,6 hPa 0,0 mm W 268 11,3 km/h (2 Bft)
19.04.2013 12:20 10,7 C 88 % 1020,5 hPa 0,0 mm W 270 9,7 km/h (2 Bft)
19.04.2013 12:25 10,7 C 88 % 1020,5 hPa 0,0 mm W 260 9,7 km/h (2 Bft)
19.04.2013 12:30 10,7 C 88 % 1020,5 hPa 0,0 mm W 272 9,7 km/h (2 Bft)
19.04.2013 12:35 10,7 C 87 % 1020,5 hPa 0,0 mm W 265 9,7 km/h (2 Bft)
19.04.2013 12:40 10,8 C 87 % 1020,5 hPa 0,0 mm W 260 8,0 km/h (2 Bft)
19.04.2013 12:45 10,7 C 87 % 1020,5 hPa 0,0 mm W-SW 250 8,0 km/h (2 Bft)
19.04.2013 12:50 10,7 C 87 % 1020,4 hPa 0,0 mm W 265 9,7 km/h (2 Bft)
19.04.2013 12:55 10,7 C 86 % 1020,3 hPa 0,0 mm W 266 11,3 km/h (2 Bft)
19.04.2013 13:00 10,7 C 86 % 1020,3 hPa 0,0 mm W 270 9,7 km/h (2 Bft)
19.04.2013 13:05 10,7 C 85 % 1020,3 hPa 0,0 mm W 265 11,3 km/h (2 Bft)
19.04.2013 13:10 10,7 C 85 % 1020,3 hPa 0,0 mm W-NW 290 9,7 km/h (2 Bft)
19.04.2013 13:15 10,8 C 85 % 1020,3 hPa 0,0 mm W 270 8,0 km/h (2 Bft)
19.04.2013 13:20 10,8 C 84 % 1020,3 hPa 0,0 mm W 265 9,7 km/h (2 Bft)
19.04.2013 13:25 10,8 C 84 % 1020,3 hPa 0,0 mm W-SW 250 8,0 km/h (2 Bft)
19.04.2013 13:30 10,8 C 83 % 1020,3 hPa 0,0 mm W 265 8,0 km/h (2 Bft)
19.04.2013 13:35 10,7 C 83 % 1020,4 hPa 0,0 mm W 279 8,0 km/h (2 Bft)
19.04.2013 13:40 10,8 C 84 % 1020,3 hPa 0,0 mm W 267 9,7 km/h (2 Bft)
19.04.2013 13:45 10,7 C 83 % 1020,4 hPa 0,0 mm W 272 11,3 km/h (2 Bft)
19.04.2013 13:50 10,8 C 84 % 1020,4 hPa 0,0 mm W-NW 286 12,9 km/h (3 Bft)
19.04.2013 13:55 10,7 C 83 % 1020,4 hPa 0,0 mm W 264 11,3 km/h (2 Bft)
19.04.2013 14:00 10,6 C 84 % 1020,4 hPa 0,0 mm W 267 8,0 km/h (2 Bft)
19.04.2013 14:05 10,6 C 86 % 1020,5 hPa 0,0 mm W 264 8,0 km/h (2 Bft)
19.04.2013 14:10 10,4 C 87 % 1020,5 hPa 0,0 mm W 265 9,7 km/h (2 Bft)
19.04.2013 14:15 10,3 C 89 % 1020,4 hPa 0,0 mm W-SW 258 8,0 km/h (2 Bft)
19.04.2013 14:20 10,1 C 89 % 1020,4 hPa 0,0 mm W 265 8,0 km/h (2 Bft)
19.04.2013 14:25 10,0 C 89 % 1020,4 hPa 0,0 mm W-NW 286 6,4 km/h (2 Bft)
19.04.2013 14:30 9,9 C 89 % 1020,4 hPa 0,0 mm NW 307 4,8 km/h (1 Bft)
19.04.2013 14:35 10,0 C 89 % 1020,4 hPa 0,0 mm W-NW 300 3,2 km/h (1 Bft)
19.04.2013 14:40 10,1 C 88 % 1020,3 hPa 0,0 mm W-NW 302 6,4 km/h (2 Bft)
19.04.2013 14:45 10,1 C 88 % 1020,3 hPa 0,0 mm W-NW 285 8,0 km/h (2 Bft)
19.04.2013 14:50 10,1 C 88 % 1020,3 hPa 0,0 mm W 267 8,0 km/h (2 Bft)
19.04.2013 14:55 10,1 C 88 % 1020,3 hPa 0,0 mm W-NW 296 6,4 km/h (2 Bft)
19.04.2013 15:00 10,1 C 87 % 1020,1 hPa 0,0 mm W-SW 247 4,8 km/h (1 Bft)
19.04.2013 15:05 10,2 C 87 % 1020,1 hPa 0,0 mm W-SW 253 8,0 km/h (2 Bft)
19.04.2013 15:10 10,2 C 86 % 1020,1 hPa 0,0 mm W-SW 254 8,0 km/h (2 Bft)
19.04.2013 15:15 10,2 C 86 % 1020,2 hPa 0,0 mm W 280 8,0 km/h (2 Bft)
19.04.2013 15:20 10,2 C 87 % 1020,1 hPa 0,0 mm W 260 8,0 km/h (2 Bft)
19.04.2013 15:25 10,1 C 87 % 1020,1 hPa 0,0 mm W 281 6,4 km/h (2 Bft)
19.04.2013 15:30 10,1 C 87 % 1020,1 hPa 0,0 mm W 259 6,4 km/h (2 Bft)
19.04.2013 15:35 9,9 C 87 % 1020,1 hPa 0,0 mm W-NW 287 6,4 km/h (2 Bft)
19.04.2013 15:40 9,9 C 88 % 1020,1 hPa 0,0 mm W-NW 288 6,4 km/h (2 Bft)
19.04.2013 15:45 9,9 C 88 % 1020,1 hPa 0,0 mm W 261 6,4 km/h (2 Bft)
19.04.2013 15:50 9,9 C 88 % 1020,1 hPa 0,0 mm W-SW 250 6,4 km/h (2 Bft)
19.04.2013 15:55 9,9 C 89 % 1020,2 hPa 0,0 mm W 265 8,0 km/h (2 Bft)
19.04.2013 16:00 9,8 C 90 % 1020,3 hPa 0,0 mm W 276 9,7 km/h (2 Bft)
19.04.2013 16:05 9,6 C 91 % 1020,3 hPa 0,0 mm W 272 6,4 km/h (2 Bft)
19.04.2013 16:10 9,4 C 92 % 1020,3 hPa 0,0 mm W 266 8,0 km/h (2 Bft)
19.04.2013 16:15 9,3 C 92 % 1020,3 hPa 0,2 mm W-SW 257 8,0 km/h (2 Bft)
19.04.2013 16:20 9,3 C 92 % 1020,3 hPa 0,0 mm W 259 8,0 km/h (2 Bft)
19.04.2013 16:25 9,2 C 92 % 1020,3 hPa 0,0 mm W 271 8,0 km/h (2 Bft)
19.04.2013 16:30 9,2 C 93 % 1020,3 hPa 0,2 mm W 281 4,8 km/h (1 Bft)
19.04.2013 16:35 9,1 C 93 % 1020,3 hPa 0,0 mm W-NW 293 4,8 km/h (1 Bft)
19.04.2013 16:40 9,1 C 93 % 1020,3 hPa 0,0 mm W 277 6,4 km/h (2 Bft)
19.04.2013 16:45 9,0 C 93 % 1020,2 hPa 0,0 mm W 269 8,0 km/h (2 Bft)
19.04.2013 16:50 9,0 C 93 % 1020,2 hPa 0,0 mm W-NW 288 6,4 km/h (2 Bft)
19.04.2013 16:55 9,0 C 93 % 1020,2 hPa 0,0 mm W 267 4,8 km/h (1 Bft)
19.04.2013 17:00 9,0 C 93 % 1020,2 hPa 0,0 mm W-SW 251 6,4 km/h (2 Bft)
19.04.2013 17:05 9,0 C 93 % 1020,3 hPa 0,0 mm W 279 6,4 km/h (2 Bft)
19.04.2013 17:10 9,1 C 93 % 1020,3 hPa 0,2 mm W-NW 282 4,8 km/h (1 Bft)
19.04.2013 17:15 9,1 C 93 % 1020,3 hPa 0,0 mm W 261 6,4 km/h (2 Bft)
19.04.2013 17:20 9,0 C 94 % 1020,3 hPa 0,0 mm W-SW 258 9,7 km/h (2 Bft)
19.04.2013 17:25 8,9 C 93 % 1020,3 hPa 0,0 mm W 267 8,0 km/h (2 Bft)
19.04.2013 17:30 8,8 C 93 % 1020,3 hPa 0,2 mm W-SW 243 6,4 km/h (2 Bft)
19.04.2013 17:35 8,8 C 93 % 1020,3 hPa 0,0 mm W-SW 254 4,8 km/h (1 Bft)
19.04.2013 17:40 8,8 C 92 % 1020,4 hPa 0,0 mm W-NW 288 6,4 km/h (2 Bft)
19.04.2013 17:45 8,7 C 92 % 1020,4 hPa 0,0 mm W 277 8,0 km/h (2 Bft)
19.04.2013 17:50 8,7 C 92 % 1020,4 hPa 0,0 mm W-NW 284 6,4 km/h (2 Bft)
19.04.2013 17:55 8,7 C 92 % 1020,5 hPa 0,0 mm W-NW 291 6,4 km/h (2 Bft)
19.04.2013 18:00 8,6 C 92 % 1020,5 hPa 0,0 mm W-NW 290 6,4 km/h (2 Bft)
19.04.2013 18:05 8,6 C 93 % 1020,5 hPa 0,0 mm W-NW 289 8,0 km/h (2 Bft)
19.04.2013 18:10 8,5 C 92 % 1020,5 hPa 0,0 mm W-NW 288 8,0 km/h (2 Bft)
19.04.2013 18:15 8,4 C 92 % 1020,5 hPa 0,0 mm W-NW 294 6,4 km/h (2 Bft)
19.04.2013 18:20 8,4 C 92 % 1020,5 hPa 0,0 mm W-NW 287 6,4 km/h (2 Bft)
19.04.2013 18:25 8,4 C 92 % 1020,6 hPa 0,0 mm W-NW 294 6,4 km/h (2 Bft)
19.04.2013 18:30 8,4 C 92 % 1020,6 hPa 0,0 mm W-NW 284 6,4 km/h (2 Bft)
19.04.2013 18:35 8,4 C 93 % 1020,4 hPa 0,0 mm W-NW 288 4,8 km/h (1 Bft)
19.04.2013 18:40 8,4 C 93 % 1020,5 hPa 0,0 mm W-NW 288 3,2 km/h (1 Bft)
19.04.2013 18:45 8,4 C 93 % 1020,5 hPa 0,0 mm W-NW 292 4,8 km/h (1 Bft)
19.04.2013 18:50 8,4 C 93 % 1020,5 hPa 0,0 mm W-NW 292 3,2 km/h (1 Bft)
19.04.2013 18:55 8,4 C 93 % 1020,5 hPa 0,2 mm W 281 4,8 km/h (1 Bft)
19.04.2013 19:00 8,4 C 93 % 1020,5 hPa 0,0 mm W-NW 300 4,8 km/h (1 Bft)
19.04.2013 19:05 8,4 C 93 % 1020,6 hPa 0,2 mm W-NW 292 4,8 km/h (1 Bft)
19.04.2013 19:10 8,3 C 93 % 1020,7 hPa 0,2 mm W 279 8,0 km/h (2 Bft)
19.04.2013 19:15 8,3 C 93 % 1020,7 hPa 0,2 mm W 275 6,4 km/h (2 Bft)
19.04.2013 19:20 8,2 C 93 % 1020,8 hPa 0,2 mm W-NW 284 6,4 km/h (2 Bft)
19.04.2013 19:25 8,2 C 93 % 1020,8 hPa 0,2 mm W-NW 290 4,8 km/h (1 Bft)
19.04.2013 19:30 8,2 C 93 % 1020,9 hPa 0,0 mm W 280 4,8 km/h (1 Bft)
19.04.2013 19:35 8,2 C 93 % 1020,8 hPa 0,2 mm W 278 4,8 km/h (1 Bft)
19.04.2013 19:40 8,2 C 93 % 1020,9 hPa 0,2 mm W-SW 258 6,4 km/h (2 Bft)
19.04.2013 19:45 8,2 C 94 % 1020,9 hPa 0,0 mm W 261 6,4 km/h (2 Bft)
19.04.2013 19:50 8,2 C 94 % 1021,1 hPa 0,0 mm W-NW 288 4,8 km/h (1 Bft)
19.04.2013 19:55 8,2 C 94 % 1021,1 hPa 0,0 mm W 267 11,3 km/h (2 Bft)
19.04.2013 20:00 8,2 C 94 % 1021,3 hPa 0,4 mm W 262 11,3 km/h (2 Bft)
19.04.2013 20:05 8,1 C 93 % 1021,3 hPa 0,0 mm W-NW 287 16,1 km/h (3 Bft)
19.04.2013 20:10 8,0 C 93 % 1021,4 hPa 0,0 mm W 267 11,3 km/h (2 Bft)
19.04.2013 20:15 8,0 C 93 % 1021,4 hPa 0,2 mm W 267 8,0 km/h (2 Bft)
19.04.2013 20:20 8,0 C 93 % 1021,5 hPa 0,0 mm W-SW 257 4,8 km/h (1 Bft)
19.04.2013 20:25 8,0 C 93 % 1021,5 hPa 0,0 mm W 275 6,4 km/h (2 Bft)
19.04.2013 20:30 8,0 C 93 % 1021,5 hPa 0,2 mm W 261 8,0 km/h (2 Bft)
19.04.2013 20:35 7,9 C 93 % 1021,6 hPa 0,0 mm W 266 6,4 km/h (2 Bft)
19.04.2013 20:40 7,9 C 93 % 1021,6 hPa 0,0 mm W 275 8,0 km/h (2 Bft)
19.04.2013 20:45 7,9 C 93 % 1021,7 hPa 0,0 mm W-SW 248 6,4 km/h (2 Bft)
19.04.2013 20:50 7,9 C 93 % 1021,8 hPa 0,0 mm W 263 12,9 km/h (3 Bft)
19.04.2013 20:55 7,8 C 93 % 1021,8 hPa 0,2 mm W 278 8,0 km/h (2 Bft)
19.04.2013 21:00 7,7 C 93 % 1021,8 hPa 0,0 mm W 273 8,0 km/h (2 Bft)
19.04.2013 21:05 7,7 C 93 % 1021,9 hPa 0,0 mm W-SW 252 8,0 km/h (2 Bft)
19.04.2013 21:10 7,7 C 93 % 1022,0 hPa 0,0 mm W 260 9,7 km/h (2 Bft)
19.04.2013 21:15 7,7 C 93 % 1021,9 hPa 0,0 mm W 273 11,3 km/h (2 Bft)
19.04.2013 21:20 7,6 C 93 % 1022,1 hPa 0,0 mm W 271 8,0 km/h (2 Bft)
19.04.2013 21:25 7,6 C 93 % 1022,2 hPa 0,2 mm W 259 11,3 km/h (2 Bft)
19.04.2013 21:30 7,4 C 93 % 1022,1 hPa 0,0 mm W 273 11,3 km/h (2 Bft)
19.04.2013 21:35 7,4 C 93 % 1022,2 hPa 0,0 mm W 269 9,7 km/h (2 Bft)
19.04.2013 21:40 7,4 C 94 % 1022,2 hPa 0,0 mm W 274 9,7 km/h (2 Bft)
19.04.2013 21:45 7,3 C 93 % 1022,3 hPa 0,0 mm W 265 9,7 km/h (2 Bft)
19.04.2013 21:50 7,3 C 94 % 1022,2 hPa 0,0 mm W 279 8,0 km/h (2 Bft)
19.04.2013 21:55 7,3 C 94 % 1022,3 hPa 0,0 mm W 275 9,7 km/h (2 Bft)
19.04.2013 22:00 7,3 C 94 % 1022,4 hPa 0,0 mm W 269 9,7 km/h (2 Bft)
19.04.2013 22:05 7,3 C 94 % 1022,3 hPa 0,0 mm W 271 8,0 km/h (2 Bft)
19.04.2013 22:10 7,3 C 94 % 1022,2 hPa 0,0 mm W 267 8,0 km/h (2 Bft)
19.04.2013 22:15 7,3 C 94 % 1022,2 hPa 0,0 mm W 271 9,7 km/h (2 Bft)
19.04.2013 22:20 7,3 C 94 % 1022,3 hPa 0,2 mm W 266 8,0 km/h (2 Bft)
19.04.2013 22:25 7,3 C 94 % 1022,3 hPa 0,0 mm W 269 6,4 km/h (2 Bft)
19.04.2013 22:30 7,3 C 94 % 1022,2 hPa 0,0 mm W 267 8,0 km/h (2 Bft)
19.04.2013 22:35 7,2 C 94 % 1022,1 hPa 0,2 mm W 269 8,0 km/h (2 Bft)
19.04.2013 22:40 7,2 C 94 % 1022,1 hPa 0,0 mm W 266 6,4 km/h (2 Bft)
19.04.2013 22:45 7,2 C 94 % 1022,1 hPa 0,0 mm W 263 8,0 km/h (2 Bft)
19.04.2013 22:50 7,2 C 94 % 1022,1 hPa 0,2 mm W 273 8,0 km/h (2 Bft)
19.04.2013 22:55 7,2 C 94 % 1022,1 hPa 0,0 mm W-NW 282 8,0 km/h (2 Bft)
19.04.2013 23:00 7,2 C 94 % 1022,2 hPa 0,2 mm W 266 6,4 km/h (2 Bft)
19.04.2013 23:05 7,1 C 94 % 1022,2 hPa 0,0 mm W-SW 257 9,7 km/h (2 Bft)
19.04.2013 23:10 7,1 C 94 % 1022,2 hPa 0,0 mm W 272 8,0 km/h (2 Bft)
19.04.2013 23:15 7,1 C 94 % 1022,3 hPa 0,0 mm W 269 8,0 km/h (2 Bft)
19.04.2013 23:20 7,1 C 94 % 1022,3 hPa 0,0 mm W 279 11,3 km/h (2 Bft)
19.04.2013 23:25 7,0 C 94 % 1022,4 hPa 0,2 mm W 268 8,0 km/h (2 Bft)
19.04.2013 23:30 6,9 C 94 % 1022,5 hPa 0,0 mm W 269 11,3 km/h (2 Bft)
19.04.2013 23:35 6,9 C 94 % 1022,5 hPa 0,2 mm W 265 8,0 km/h (2 Bft)
19.04.2013 23:40 6,9 C 94 % 1022,5 hPa 0,0 mm W 273 4,8 km/h (1 Bft)
19.04.2013 23:45 6,9 C 94 % 1022,5 hPa 0,0 mm W 273 6,4 km/h (2 Bft)
19.04.2013 23:50 6,9 C 94 % 1022,4 hPa 0,2 mm W 273 6,4 km/h (2 Bft)
19.04.2013 23:55 6,9 C 94 % 1022,4 hPa 0,0 mm W 259 6,4 km/h (2 Bft)
_ Min-Zeit 23:30 00:35 00:00 - - - 07:50
Minimum _ 6,9 C 72 % 1017,1 hPa - - - 0,0 km/h (0 Bft)
_ Max-Zeit 00:35 17:20 23:30 01:10 - - 05:05
Maximum _ 16,4 C 94 % 1022,5 hPa 0,4 mm - - 20,9 km/h
W (4 Bft)
Durchschnitt _ 10,6 C 90 % 1020,1 hPa #7,8 mm W - 7,5 km/h (2 Bft)